• In Lithuania
  • List of Countries
  • For 7 days
  • Water Temperature
  • Satellite Maps
  • Weather Map
  • Weather Widgets
  • user-avatar
    Login

    Hourly Weather Escaldes-Engordany

    Today, 23 October, Tuesday

    Time Temperature Precipitation Wind Pressure Humidity
    00:00 +5°C° 0 mm 2 mps 644 mmHg 64%
    01:00 +5°C° 0 mm 2 mps 644 mmHg 62%
    02:00 +5°C° 0 mm 2 mps 644 mmHg 59%
    03:00 +5°C° 0 mm 2 mps 644 mmHg 57%
    04:00 +5°C° 0 mm 2 mps 644 mmHg 57%
    05:00 +5°C° 0 mm 2 mps 644 mmHg 57%
    06:00 +4°C° 0 mm 2 mps 644 mmHg 57%
    07:00 +7°C° 0 mm 2 mps 645 mmHg 54%
    08:00 +9°C° 0 mm 2 mps 646 mmHg 50%
    09:00 +12°C° 0 mm 2 mps 647 mmHg 46%
    10:00 +13°C° 0 mm 2 mps 647 mmHg 44%
    11:00 +14°C° 0 mm 2 mps 648 mmHg 42%
    12:00 +15°C° 0 mm 2 mps 648 mmHg 41%
    13:00 +15°C° 0 mm 2 mps 648 mmHg 43%
    14:00 +15°C° 0 mm 2 mps 647 mmHg 45%
    15:00 +14°C° 0 mm 2 mps 647 mmHg 47%
    16:00 +12°C° 0 mm 2 mps 646 mmHg 55%
    17:00 +9°C° 0 mm 2 mps 645 mmHg 62%
    18:00 +7°C° 0 mm 2 mps 645 mmHg 70%
    19:00 +6°C° 0 mm 2 mps 645 mmHg 66%
    20:00 +6°C° 0 mm 2 mps 645 mmHg 61%
    21:00 +5°C° 0 mm 2 mps 645 mmHg 57%
    22:00 +5°C° 0 mm 2 mps 644 mmHg 53%
    23:00 +5°C° 0 mm 2 mps 644 mmHg 50%

    Tomorrow, 24 October, Wednesday

    Time Temperature Precipitation Wind Pressure Humidity
    00:00 +5°C° 0 mm 2 mps 644 mmHg 46%
    01:00 +5°C° 0 mm 2 mps 644 mmHg 45%
    02:00 +4°C° 0 mm 3 mps 644 mmHg 43%
    03:00 +4°C° 0 mm 3 mps 644 mmHg 42%
    04:00 +4°C° 0 mm 3 mps 643 mmHg 42%
    05:00 +4°C° 0 mm 3 mps 643 mmHg 43%
    06:00 +4°C° 0 mm 3 mps 643 mmHg 43%
    07:00 +7°C° 0 mm 3 mps 644 mmHg 40%
    08:00 +9°C° 0 mm 3 mps 645 mmHg 37%
    09:00 +12°C° 0 mm 3 mps 646 mmHg 34%
    10:00 +13°C° 0 mm 3 mps 646 mmHg 33%
    11:00 +14°C° 0 mm 3 mps 646 mmHg 31%
    12:00 +16°C° 0 mm 3 mps 646 mmHg 30%
    13:00 +16°C° 0 mm 3 mps 645 mmHg 33%
    14:00 +16°C° 0 mm 3 mps 645 mmHg 36%
    15:00 +14°C° 0 mm 3 mps 644 mmHg 39%
    16:00 +12°C° 0 mm 3 mps 644 mmHg 45%
    17:00 +10°C° 0 mm 3 mps 643 mmHg 51%
    18:00 +8°C° 0 mm 2 mps 642 mmHg 57%
    19:00 +7°C° 0 mm 2 mps 642 mmHg 57%
    20:00 +7°C° 0 mm 2 mps 642 mmHg 58%
    21:00 +7°C° 0 mm 2 mps 642 mmHg 58%
    22:00 +7°C° 0 mm 2 mps 642 mmHg 59%
    23:00 +7°C° 0 mm 2 mps 642 mmHg 60%

    Day after tomorrow, 25 October, Thursday

    Time Temperature Precipitation Wind Pressure Humidity
    00:00 +7°C° 0 mm 2 mps 641 mmHg 61%
    01:00 +7°C° 0 mm 2 mps 641 mmHg 61%
    02:00 +7°C° 0 mm 2 mps 641 mmHg 62%
    03:00 +7°C° 0 mm 2 mps 641 mmHg 63%
    04:00 +6°C° 0 mm 2 mps 640 mmHg 63%
    05:00 +6°C° 0 mm 2 mps 640 mmHg 63%
    06:00 +6°C° 0 mm 2 mps 640 mmHg 63%
    07:00 +9°C° 0 mm 1 mps 641 mmHg 57%
    08:00 +12°C° 0 mm 1 mps 642 mmHg 51%
    09:00 +14°C° 0 mm 1 mps 643 mmHg 45%
    10:00 +15°C° 0 mm 1 mps 643 mmHg 43%
    11:00 +16°C° 0 mm 1 mps 643 mmHg 41%
    12:00 +18°C° 0 mm 1 mps 643 mmHg 39%
    13:00 +18°C° 0 mm 1 mps 642 mmHg 42%
    14:00 +16°C° 0 mm 1 mps 642 mmHg 45%
    15:00 +16°C° 0 mm 1 mps 641 mmHg 48%
    16:00 +13°C° 0 mm 1 mps 640 mmHg 58%
    17:00 +11°C° 0 mm 1 mps 640 mmHg 67%
    18:00 +9°C° 0 mm 1 mps 639 mmHg 77%
    19:00 +8°C° 0 mm 1 mps 639 mmHg 76%
    20:00 +8°C° 0 mm 1 mps 639 mmHg 76%
    21:00 +8°C° 0 mm 1 mps 639 mmHg 76%
    22:00 +8°C° 0 mm 1 mps 638 mmHg 74%
    23:00 +8°C° 0 mm 1 mps 638 mmHg 72%

    26 October, Friday

    Time Temperature Precipitation Wind Pressure Humidity
    00:00 +7°C° 0 mm 1 mps 638 mmHg 71%
    01:00 +7°C° 0 mm 1 mps 637 mmHg 68%
    02:00 +7°C° 0 mm 1 mps 637 mmHg 64%
    03:00 +7°C° 0 mm 1 mps 637 mmHg 61%
    04:00 +7°C° 0 mm 1 mps 637 mmHg 58%
    05:00 +7°C° 0 mm 1 mps 637 mmHg 54%
    06:00 +7°C° 0 mm 1 mps 637 mmHg 51%
    07:00 +9°C° 0 mm 1 mps 637 mmHg 48%
    08:00 +11°C° 0 mm 1 mps 638 mmHg 45%
    09:00 +12°C° 0 mm 1 mps 639 mmHg 42%
    10:00 +13°C° 0 mm 1 mps 639 mmHg 42%
    11:00 +14°C° 0 mm 2 mps 639 mmHg 42%
    12:00 +15°C° 0 mm 2 mps 639 mmHg 42%
    13:00 +15°C° 0 mm 2 mps 639 mmHg 46%
    14:00 +14°C° 0 mm 2 mps 638 mmHg 50%
    15:00 +13°C° 0 mm 2 mps 638 mmHg 54%
    16:00 +12°C° 0 mm 1 mps 637 mmHg 63%
    17:00 +10°C° 0 mm 1 mps 637 mmHg 73%
    18:00 +8°C° 0 mm 1 mps 636 mmHg 82%
    19:00 +8°C° 0 mm 1 mps 636 mmHg 83%
    20:00 +8°C° 0 mm 1 mps 636 mmHg 84%
    21:00 +8°C° 0 mm 1 mps 637 mmHg 85%
    22:00 +8°C° 0.1 mm 1 mps 636 mmHg 86%
    23:00 +8°C° 0.1 mm 1 mps 636 mmHg 87%

    27 October, Saturday

    Time Temperature Precipitation Wind Pressure Humidity
    00:00 +8°C° 0.1 mm 1 mps 636 mmHg 88%
    01:00 +6°C° 0.8 mm 2 mps 636 mmHg 89%
    02:00 +6°C° 0.8 mm 2 mps 636 mmHg 90%
    03:00 +4°C° 0.8 mm 3 mps 636 mmHg 92%
    04:00 +4°C° 0.8 mm 3 mps 636 mmHg 92%
    05:00 +3°C° 0.8 mm 3 mps 635 mmHg 92%
    06:00 +2°C° 0.8 mm 3 mps 635 mmHg 92%
    07:00 +2°C° 0.1 mm 3 mps 636 mmHg 87%
    08:00 +1°C° 0.1 mm 4 mps 636 mmHg 82%
    09:00 +1°C° 0.1 mm 4 mps 636 mmHg 77%
    10:00 +3°C° 0 mm 4 mps 636 mmHg 68%
    11:00 +4°C° 0 mm 4 mps 636 mmHg 60%
    12:00 +5°C° 0 mm 4 mps 636 mmHg 51%
    13:00 +5°C° 0 mm 4 mps 635 mmHg 49%
    14:00 +5°C° 0 mm 4 mps 635 mmHg 47%
    15:00 +5°C° 0 mm 4 mps 634 mmHg 45%
    16:00 +3°C° 0 mm 3 mps 634 mmHg 53%
    17:00 +1°C° 0 mm 3 mps 633 mmHg 61%
    18:00 +1°C° 0 mm 2 mps 633 mmHg 69%
    19:00 -1°C° 0.1 mm 2 mps 633 mmHg 70%
    20:00 -1°C° 0.1 mm 2 mps 633 mmHg 71%
    21:00 -1°C° 0.1 mm 2 mps 632 mmHg 73%
    22:00 -1°C° 0.1 mm 2 mps 632 mmHg 74%
    23:00 +1°C° 0.1 mm 1 mps 631 mmHg 75%

    28 October, Sunday

    Time Temperature Precipitation Wind Pressure Humidity
    00:00 0°C° 0.1 mm 1 mps 631 mmHg 76%
    01:00 0°C° 0.1 mm 1 mps 631 mmHg 78%
    02:00 0°C° 0.1 mm 1 mps 631 mmHg 80%
    03:00 -1°C° 0.1 mm 1 mps 630 mmHg 81%
    04:00 -3°C° 0.2 mm 2 mps 631 mmHg 82%
    05:00 -3°C° 0.2 mm 2 mps 631 mmHg 83%
    06:00 -3°C° 0.2 mm 2 mps 631 mmHg 84%
    07:00 -3°C° 0.2 mm 2 mps 632 mmHg 80%
    08:00 -2°C° 0.2 mm 3 mps 633 mmHg 76%
    09:00 -2°C° 0.2 mm 3 mps 634 mmHg 72%
    10:00 -1°C° 0.1 mm 3 mps 634 mmHg 63%
    11:00 -1°C° 0.1 mm 3 mps 634 mmHg 54%
    12:00 0°C° 0.1 mm 3 mps 634 mmHg 45%
    13:00 -1°C° 0 mm 4 mps 634 mmHg 45%
    14:00 -1°C° 0 mm 4 mps 633 mmHg 44%
    15:00 -1°C° 0 mm 4 mps 633 mmHg 44%
    16:00 -2°C° 0 mm 3 mps 633 mmHg 51%
    17:00 -4°C° 0 mm 3 mps 632 mmHg 58%
    18:00 -6°C° 0 mm 3 mps 632 mmHg 65%
    19:00 -6°C° 0 mm 3 mps 632 mmHg 66%
    20:00 -5°C° 0 mm 3 mps 633 mmHg 66%
    21:00 -5°C° 0 mm 4 mps 633 mmHg 67%
    22:00 -5°C° 0 mm 4 mps 633 mmHg 68%
    23:00 -5°C° 0 mm 4 mps 632 mmHg 70%

    29 October, Monday

    Time Temperature Precipitation Wind Pressure Humidity
    00:00 -7°C° 0 mm 4 mps 632 mmHg 71%
    01:00 -7°C° 0 mm 4 mps 632 mmHg 72%
    02:00 -7°C° 0 mm 4 mps 632 mmHg 73%
    03:00 -8°C° 0 mm 4 mps 632 mmHg 74%
    04:00 -8°C° 0 mm 4 mps 632 mmHg 73%
    05:00 -8°C° 0 mm 4 mps 632 mmHg 72%
    06:00 -10°C° 0 mm 5 mps 633 mmHg 71%
    07:00 -7°C° 0.1 mm 5 mps 633 mmHg 67%
    08:00 -6°C° 0.1 mm 6 mps 634 mmHg 64%
    09:00 -5°C° 0.1 mm 6 mps 634 mmHg 60%
    10:00 -4°C° 0.1 mm 7 mps 634 mmHg 58%
    11:00 -4°C° 0.1 mm 7 mps 634 mmHg 55%
    12:00 -3°C° 0.1 mm 7 mps 634 mmHg 53%
    13:00 -3°C° 0 mm 6 mps 633 mmHg 53%
    14:00 -3°C° 0 mm 6 mps 633 mmHg 54%
    15:00 -3°C° 0 mm 6 mps 632 mmHg 54%
    16:00 -5°C° 0 mm 6 mps 632 mmHg 59%
    17:00 -6°C° 0 mm 5 mps 632 mmHg 64%
    18:00 -7°C° 0 mm 4 mps 631 mmHg 69%
    19:00 -7°C° 0 mm 4 mps 631 mmHg 70%
    20:00 -7°C° 0 mm 4 mps 631 mmHg 71%
    21:00 -7°C° 0 mm 4 mps 631 mmHg 72%
    22:00 -7°C° 0 mm 4 mps 631 mmHg 72%
    23:00 -6°C° 0 mm 3 mps 630 mmHg 72%
    Show more